TimeCDT,TemperatureF,Dew PointF,Humidity,Sea Level PressureIn,VisibilityMPH,Wind Direction,Wind SpeedMPH,Gust SpeedMPH,PrecipitationIn,Events,Conditions,WindDirDegrees,DateUTC
12:15 AM,15.8,10.4,79,30.21,7.0,WNW,5.8,-,N/A,Snow,Light Snow,300,2013-03-24 05:15:00
12:35 AM,15.8,10.4,79,30.20,5.0,WNW,6.9,-,0.01,Snow,Light Snow,290,2013-03-24 05:35:00
12:55 AM,14.0,10.4,86,30.20,10.0,West,6.9,-,0.02,Snow,Light Snow,270,2013-03-24 05:55:00
1:15 AM,14.0,8.6,79,30.20,10.0,West,6.9,-,N/A,Snow,Light Snow,270,2013-03-24 06:15:00
1:35 AM,12.2,8.6,85,30.20,10.0,West,5.8,-,N/A,,Mostly Cloudy,280,2013-03-24 06:35:00
1:55 AM,14.0,10.4,86,30.19,10.0,West,5.8,-,N/A,,Overcast,280,2013-03-24 06:55:00
2:35 AM,14.0,10.4,86,30.20,7.0,West,8.1,-,N/A,Snow,Light Snow,270,2013-03-24 07:35:00
2:55 AM,15.8,10.4,79,30.19,6.0,West,8.1,-,N/A,Snow,Light Snow,270,2013-03-24 07:55:00
3:15 AM,15.8,12.2,86,30.19,5.0,West,5.8,-,N/A,Snow,Light Snow,270,2013-03-24 08:15:00
3:35 AM,15.8,14.0,93,30.19,4.0,NW,8.1,-,0.02,Snow,Light Snow,310,2013-03-24 08:35:00
3:55 AM,15.8,14.0,93,30.18,5.0,NW,8.1,-,0.06,Snow,Light Snow,320,2013-03-24 08:55:00
4:15 AM,15.8,12.2,86,30.18,6.0,NW,8.1,-,N/A,Snow,Light Snow,320,2013-03-24 09:15:00
4:35 AM,15.8,12.2,86,30.18,4.0,NW,6.9,-,0.03,Snow,Light Snow,310,2013-03-24 09:35:00
4:55 AM,15.8,10.4,79,30.18,4.0,NW,8.1,-,0.05,Snow,Light Snow,310,2013-03-24 09:55:00
5:15 AM,15.8,10.4,79,30.18,9.0,NW,5.8,-,N/A,Snow,Light Snow,310,2013-03-24 10:15:00
5:35 AM,14.0,10.4,86,30.18,10.0,NW,5.8,-,N/A,Snow,Light Snow,310,2013-03-24 10:35:00
5:55 AM,15.8,10.4,79,30.18,10.0,NW,9.2,-,N/A,,Overcast,310,2013-03-24 10:55:00
6:15 AM,15.8,10.4,79,30.19,4.0,NW,5.8,-,N/A,Snow,Light Snow,320,2013-03-24 11:15:00
6:35 AM,14.0,10.4,86,30.19,4.0,NW,6.9,-,0.01,Snow,Light Snow,320,2013-03-24 11:35:00
6:55 AM,14.0,10.4,86,30.20,5.0,NW,6.9,-,0.02,Snow,Light Snow,320,2013-03-24 11:55:00
7:15 AM,14.0,10.4,86,30.20,8.0,NW,4.6,-,N/A,Snow,Light Snow,310,2013-03-24 12:15:00
7:35 AM,15.8,12.2,86,30.20,3.0,NNW,6.9,-,0.01,Snow,Light Snow,330,2013-03-24 12:35:00
7:55 AM,15.8,12.2,86,30.20,2.0,NNW,10.4,-,0.04,Snow,Light Snow,330,2013-03-24 12:55:00
8:15 AM,15.8,14.0,93,30.21,2.5,NNW,9.2,-,0.01,Snow,Light Snow,330,2013-03-24 13:15:00
8:35 AM,17.6,14.0,86,30.21,4.0,NNW,8.1,-,0.03,Snow,Light Snow,330,2013-03-24 13:35:00
8:55 AM,17.6,14.0,86,30.21,5.0,NNW,8.1,-,0.03,Snow,Light Snow,330,2013-03-24 13:55:00
9:15 AM,17.6,14.0,86,30.21,8.0,North,8.1,-,N/A,Snow,Light Snow,350,2013-03-24 14:15:00
9:35 AM,17.6,14.0,86,30.21,4.0,North,8.1,-,N/A,Snow,Light Snow,350,2013-03-24 14:35:00
9:55 AM,19.4,14.0,80,30.22,2.0,North,10.4,-,0.01,Snow,Light Snow,350,2013-03-24 14:55:00
10:15 AM,19.4,14.0,80,30.22,4.0,NNW,8.1,-,N/A,Rain,Freezing Rain,340,2013-03-24 15:15:00
10:35 AM,19.4,14.0,80,30.22,3.0,North,11.5,-,0.01,Snow,Light Snow,350,2013-03-24 15:35:00
10:55 AM,19.4,14.0,80,30.22,6.0,North,12.7,-,0.03,Snow,Light Snow,360,2013-03-24 15:55:00
11:15 AM,21.2,15.8,80,30.23,5.0,North,10.4,-,N/A,Snow,Light Snow,350,2013-03-24 16:15:00
11:35 AM,21.2,15.8,80,30.23,6.0,North,12.7,17.3,0.01,Snow,Light Snow,360,2013-03-24 16:35:00
12:15 PM,21.2,15.8,80,30.24,10.0,North,12.7,-,N/A,,Mostly Cloudy,350,2013-03-24 17:15:00
12:35 PM,23.0,15.8,74,30.25,10.0,North,13.8,-,N/A,,Overcast,360,2013-03-24 17:35:00
12:55 PM,23.0,15.8,74,30.25,10.0,NNE,11.5,-,N/A,,Overcast,20,2013-03-24 17:55:00
1:15 PM,23.0,14.0,68,30.25,9.0,North,13.8,-,N/A,Rain,Freezing Rain,360,2013-03-24 18:15:00
1:35 PM,23.0,14.0,68,30.25,10.0,North,12.7,-,N/A,,Mostly Cloudy,360,2013-03-24 18:35:00
1:55 PM,23.0,15.8,74,30.25,7.0,North,15.0,-,N/A,Snow,Light Snow,360,2013-03-24 18:55:00
2:15 PM,23.0,15.8,74,30.25,8.0,North,15.0,18.4,N/A,Rain,Freezing Rain,10,2013-03-24 19:15:00
2:35 PM,23.0,15.8,74,30.25,10.0,North,15.0,-,N/A,Rain,Freezing Rain,360,2013-03-24 19:35:00
2:55 PM,23.0,14.0,68,30.26,10.0,North,12.7,-,N/A,Rain,Freezing Rain,350,2013-03-24 19:55:00
3:15 PM,23.0,14.0,68,30.26,5.0,North,13.8,17.3,N/A,Snow,Light Snow,10,2013-03-24 20:15:00
3:35 PM,23.0,14.0,68,30.26,8.0,North,12.7,-,N/A,Rain,Freezing Rain,350,2013-03-24 20:35:00
3:55 PM,23.0,10.4,59,30.26,10.0,North,11.5,17.3,N/A,,Overcast,350,2013-03-24 20:55:00
4:15 PM,21.2,10.4,63,30.26,10.0,North,17.3,-,N/A,,Mostly Cloudy,360,2013-03-24 21:15:00
4:35 PM,21.2,10.4,63,30.27,10.0,NNW,13.8,-,N/A,,Mostly Cloudy,340,2013-03-24 21:35:00
4:55 PM,21.2,10.4,63,30.28,10.0,North,13.8,-,N/A,,Mostly Cloudy,350,2013-03-24 21:55:00
5:15 PM,21.2,12.2,68,30.28,10.0,North,13.8,-,N/A,,Mostly Cloudy,360,2013-03-24 22:15:00
5:35 PM,21.2,10.4,63,30.29,10.0,NNW,12.7,-,N/A,,Mostly Cloudy,330,2013-03-24 22:35:00
6:15 PM,19.4,14.0,80,30.29,10.0,NNW,13.8,-,N/A,Snow,Light Snow,340,2013-03-24 23:15:00
6:35 PM,19.4,12.2,74,30.29,10.0,NNW,11.5,19.6,N/A,Snow,Light Snow,340,2013-03-24 23:35:00
6:55 PM,19.4,14.0,80,30.29,2.5,NNW,13.8,-,0.05,Snow,Light Snow,340,2013-03-24 23:55:00
7:15 PM,19.4,14.0,80,30.30,6.0,NNW,15.0,-,N/A,Snow,Light Snow,340,2013-03-25 00:15:00
7:35 PM,19.4,14.0,80,30.30,4.0,NNW,12.7,-,0.02,Snow,Light Snow,340,2013-03-25 00:35:00
7:55 PM,19.4,14.0,80,30.30,9.0,NNW,11.5,-,0.03,Snow,Light Snow,340,2013-03-25 00:55:00
8:15 PM,19.4,14.0,80,30.30,10.0,NNW,11.5,-,N/A,Snow,Light Snow,340,2013-03-25 01:15:00
8:35 PM,17.6,14.0,86,30.30,10.0,NNW,11.5,-,N/A,Snow,Light Snow,340,2013-03-25 01:35:00
8:55 PM,17.6,10.4,73,30.31,10.0,NNW,10.4,-,0.01,Snow,Light Snow,340,2013-03-25 01:55:00
9:15 PM,15.8,8.6,73,30.32,10.0,NNW,6.9,-,N/A,,Mostly Cloudy,340,2013-03-25 02:15:00
9:35 PM,14.0,8.6,79,30.32,10.0,NNW,6.9,-,N/A,,Mostly Cloudy,340,2013-03-25 02:35:00
9:55 PM,12.2,6.8,79,30.32,10.0,NW,3.5,-,N/A,,Overcast,310,2013-03-25 02:55:00
10:15 PM,10.4,5.0,79,30.33,10.0,West,5.8,-,N/A,,Overcast,280,2013-03-25 03:15:00
10:35 PM,10.4,5.0,79,30.33,10.0,West,4.6,-,N/A,,Overcast,280,2013-03-25 03:35:00
10:55 PM,10.4,5.0,79,30.33,10.0,NW,5.8,-,N/A,,Overcast,310,2013-03-25 03:55:00
11:15 PM,10.4,5.0,79,30.33,10.0,WNW,8.1,-,N/A,,Mostly Cloudy,300,2013-03-25 04:15:00
11:35 PM,10.4,6.8,85,30.33,10.0,WNW,5.8,-,N/A,,Partly Cloudy,300,2013-03-25 04:35:00
11:55 PM,10.4,6.8,85,30.33,10.0,WNW,5.8,-,N/A,,Partly Cloudy,300,2013-03-25 04:55:00